Location: Mahannah Oil Field
(37.4664°N, 96.6003°W)
Time: 03:00:39
(UTC+00:00)

deb Explorer IX - Pass Details

Date: 29 January 2021
Orbit: 537 x 1102 km, 38.8° (Epoch: 01 March)

Event Time Altitude Azimuth Distance (km) Brightness Sun altitude
Rises 01:02:20 0° 277° (W) 3,759 ? -15.2°
Reaches altitude 10° 01:05:11 10° 278° (W) 2,737 ? -15.8°
Maximum altitude 01:11:47 82° 6° (N) 892 ? -17.0°
Enters shadow 01:14:52 29° 92° (E) 1,469 ? -17.6°
Drops below altitude 10° 01:17:23 10° 95° (E) 2,335 - -18.1°
Sets 01:19:39 0° 96° (E) 3,176 - -18.6°
